Time,TemperatureF,DewpointF,PressureIn,WindDirection,WindDirectionDegrees,WindSpeedMPH,WindSpeedGustMPH,Humidity,HourlyPrecipIn,Conditions,Clouds,dailyrainin,SolarRadiationWatts/m^2,SoftwareType,DateUTC
2013-02-03 00:22:00,27.0,24.0,-100.00,ENE,77,3.0,4.0,87,0.00,,,0.00,1.000000,,2013-02-03 08:22:00,
2013-02-03 00:32:00,27.0,24.0,-100.00,ENE,77,3.0,4.0,87,0.00,,,0.00,1.000000,,2013-02-03 08:32:00,
2013-02-03 00:41:00,27.0,24.0,-100.00,ENE,77,3.0,4.0,87,0.00,,,0.00,1.000000,,2013-02-03 08:41:00,
2013-02-03 00:51:00,27.0,24.0,-100.00,ENE,77,3.0,4.0,87,0.00,,,0.00,1.000000,,2013-02-03 08:51:00,
2013-02-03 01:21:00,26.0,24.0,-100.00,ENE,74,5.0,7.0,91,0.00,,,0.00,1.000000,,2013-02-03 09:21:00,
2013-02-03 01:31:00,26.0,24.0,-100.00,ENE,74,5.0,7.0,91,0.00,,,0.00,1.000000,,2013-02-03 09:31:00,
2013-02-03 01:41:00,26.0,24.0,-100.00,ENE,74,5.0,7.0,91,0.00,,,0.00,1.000000,,2013-02-03 09:41:00,
2013-02-03 01:51:00,26.0,24.0,-100.00,ENE,74,5.0,7.0,91,0.00,,,0.00,1.000000,,2013-02-03 09:51:00,
2013-02-03 02:21:00,25.0,23.0,-100.00,NE,40,3.0,5.0,91,0.00,,,0.00,1.000000,,2013-02-03 10:21:00,
2013-02-03 02:31:00,25.0,23.0,-100.00,NE,40,3.0,5.0,91,0.00,,,0.00,1.000000,,2013-02-03 10:31:00,
2013-02-03 02:41:00,25.0,23.0,-100.00,NE,40,3.0,5.0,91,0.00,,,0.00,1.000000,,2013-02-03 10:41:00,
2013-02-03 02:52:00,25.0,23.0,-100.00,NE,40,3.0,5.0,91,0.00,,,0.00,1.000000,,2013-02-03 10:52:00,
2013-02-03 03:22:00,23.0,21.0,-100.00,East,82,5.0,6.0,93,0.00,,,-99.99,1.000000,,2013-02-03 11:22:00,
2013-02-03 03:31:00,23.0,21.0,-100.00,East,82,5.0,6.0,93,0.00,,,-99.99,1.000000,,2013-02-03 11:31:00,
2013-02-03 03:41:00,23.0,21.0,-100.00,East,82,5.0,6.0,93,0.00,,,-99.99,1.000000,,2013-02-03 11:41:00,
2013-02-03 03:52:00,23.0,21.0,-100.00,East,82,5.0,6.0,93,0.00,,,-99.99,1.000000,,2013-02-03 11:52:00,
2013-02-03 04:22:00,24.0,22.0,-100.00,ENE,75,6.0,9.0,91,0.00,,,0.00,1.000000,,2013-02-03 12:22:00,
2013-02-03 04:32:00,24.0,22.0,-100.00,ENE,75,6.0,9.0,91,0.00,,,0.00,1.000000,,2013-02-03 12:32:00,
2013-02-03 04:42:00,24.0,22.0,-100.00,ENE,75,6.0,9.0,91,0.00,,,0.00,1.000000,,2013-02-03 12:42:00,
2013-02-03 04:52:00,24.0,22.0,-100.00,ENE,75,6.0,9.0,91,0.00,,,0.00,1.000000,,2013-02-03 12:52:00,
2013-02-03 05:21:00,25.0,22.0,-100.00,NNE,13,5.0,11.0,90,0.00,,,-99.99,1.000000,,2013-02-03 13:21:00,
2013-02-03 05:32:00,25.0,22.0,-100.00,NNE,13,5.0,11.0,90,0.00,,,-99.99,1.000000,,2013-02-03 13:32:00,
2013-02-03 05:41:00,25.0,22.0,-100.00,NNE,13,5.0,11.0,90,0.00,,,-99.99,1.000000,,2013-02-03 13:41:00,
2013-02-03 05:52:00,25.0,22.0,-100.00,NNE,13,5.0,11.0,90,0.00,,,-99.99,1.000000,,2013-02-03 13:52:00,
2013-02-03 07:22:00,21.0,20.0,-100.00,ENE,75,5.0,7.0,95,-99.99,,,-99.99,1.000000,,2013-02-03 15:22:00,
2013-02-03 07:32:00,21.0,20.0,-100.00,ENE,75,5.0,7.0,95,-99.99,,,-99.99,1.000000,,2013-02-03 15:32:00,
2013-02-03 07:41:00,21.0,20.0,-100.00,ENE,75,5.0,7.0,95,-99.99,,,-99.99,1.000000,,2013-02-03 15:41:00,
2013-02-03 07:51:00,21.0,20.0,-100.00,ENE,75,5.0,7.0,95,-99.99,,,-99.99,1.000000,,2013-02-03 15:51:00,
2013-02-03 08:21:00,23.0,21.0,-100.00,ENE,64,3.0,7.0,91,0.00,,,0.00,13.000000,,2013-02-03 16:21:00,
2013-02-03 08:32:00,23.0,21.0,-100.00,ENE,64,3.0,7.0,91,0.00,,,0.00,13.000000,,2013-02-03 16:32:00,
2013-02-03 08:41:00,23.0,21.0,-100.00,ENE,64,3.0,7.0,91,0.00,,,0.00,13.000000,,2013-02-03 16:41:00,
2013-02-03 08:52:00,23.0,21.0,-100.00,ENE,64,3.0,7.0,91,0.00,,,0.00,13.000000,,2013-02-03 16:52:00,
2013-02-03 09:21:00,27.0,22.0,-100.00,ENE,58,4.0,6.0,80,0.00,,,-99.99,113.000000,,2013-02-03 17:21:00,
2013-02-03 09:31:00,27.0,22.0,-100.00,ENE,58,4.0,6.0,80,0.00,,,-99.99,113.000000,,2013-02-03 17:31:00,
2013-02-03 09:42:00,27.0,22.0,-100.00,ENE,58,4.0,6.0,80,0.00,,,-99.99,113.000000,,2013-02-03 17:42:00,
2013-02-03 09:52:00,27.0,22.0,-100.00,ENE,58,4.0,6.0,80,0.00,,,-99.99,113.000000,,2013-02-03 17:52:00,
2013-02-03 10:23:00,31.0,24.0,-100.00,ENE,61,3.0,6.0,74,0.00,,,0.00,161.000000,,2013-02-03 18:23:00,
2013-02-03 10:32:00,31.0,24.0,-100.00,ENE,61,3.0,6.0,74,0.00,,,0.00,161.000000,,2013-02-03 18:32:00,
2013-02-03 10:41:00,31.0,24.0,-100.00,ENE,61,3.0,6.0,74,0.00,,,0.00,161.000000,,2013-02-03 18:41:00,
2013-02-03 10:51:00,31.0,24.0,-100.00,ENE,61,3.0,6.0,74,0.00,,,0.00,161.000000,,2013-02-03 18:51:00,
2013-02-03 11:22:00,41.0,27.0,-100.00,WSW,238,3.0,5.0,57,0.00,,,0.00,199.000000,,2013-02-03 19:22:00,
2013-02-03 11:31:00,41.0,27.0,-100.00,WSW,238,3.0,5.0,57,0.00,,,0.00,199.000000,,2013-02-03 19:31:00,
2013-02-03 11:41:00,41.0,27.0,-100.00,WSW,238,3.0,5.0,57,0.00,,,0.00,199.000000,,2013-02-03 19:41:00,
2013-02-03 11:51:00,41.0,27.0,-100.00,WSW,238,3.0,5.0,57,0.00,,,0.00,199.000000,,2013-02-03 19:51:00,
2013-02-03 12:21:00,41.0,27.0,-100.00,WSW,239,5.0,8.0,56,0.00,,,0.00,539.000000,,2013-02-03 20:21:00,
2013-02-03 12:32:00,41.0,27.0,-100.00,WSW,239,5.0,8.0,56,0.00,,,0.00,539.000000,,2013-02-03 20:32:00,
2013-02-03 12:42:00,41.0,27.0,-100.00,WSW,239,5.0,8.0,56,0.00,,,0.00,539.000000,,2013-02-03 20:42:00,
2013-02-03 12:52:00,41.0,27.0,-100.00,WSW,239,5.0,8.0,56,0.00,,,0.00,539.000000,,2013-02-03 20:52:00,
2013-02-03 13:21:00,46.0,27.0,-100.00,West,260,4.0,7.0,48,0.00,,,0.00,595.000000,,2013-02-03 21:21:00,
2013-02-03 13:32:00,46.0,27.0,-100.00,West,260,4.0,7.0,48,0.00,,,0.00,595.000000,,2013-02-03 21:32:00,
2013-02-03 13:42:00,46.0,27.0,-100.00,West,260,4.0,7.0,48,0.00,,,0.00,595.000000,,2013-02-03 21:42:00,
2013-02-03 13:51:00,46.0,27.0,-100.00,West,260,4.0,7.0,48,0.00,,,0.00,595.000000,,2013-02-03 21:51:00,
2013-02-03 14:21:00,46.0,25.0,-100.00,WSW,251,5.0,8.0,44,0.00,,,0.00,570.000000,,2013-02-03 22:21:00,
2013-02-03 14:32:00,46.0,25.0,-100.00,WSW,251,5.0,8.0,44,0.00,,,0.00,570.000000,,2013-02-03 22:32:00,
2013-02-03 14:41:00,46.0,25.0,-100.00,WSW,251,5.0,8.0,44,0.00,,,0.00,570.000000,,2013-02-03 22:41:00,
2013-02-03 14:51:00,46.0,25.0,-100.00,WSW,251,5.0,8.0,44,0.00,,,0.00,570.000000,,2013-02-03 22:51:00,
2013-02-03 15:22:00,48.0,27.0,-100.00,WSW,241,5.0,9.0,44,0.00,,,0.00,489.000000,,2013-02-03 23:22:00,
2013-02-03 15:32:00,48.0,27.0,-100.00,WSW,241,5.0,9.0,44,0.00,,,0.00,489.000000,,2013-02-03 23:32:00,
2013-02-03 15:41:00,48.0,27.0,-100.00,WSW,241,5.0,9.0,44,0.00,,,0.00,489.000000,,2013-02-03 23:41:00,
2013-02-03 15:52:00,48.0,27.0,-100.00,WSW,241,5.0,9.0,44,0.00,,,0.00,489.000000,,2013-02-03 23:52:00,
2013-02-03 16:22:00,42.0,27.0,-100.00,WSW,257,5.0,8.0,56,0.00,,,0.00,230.000000,,2013-02-04 00:22:00,
2013-02-03 16:31:00,42.0,27.0,-100.00,WSW,257,5.0,8.0,56,0.00,,,0.00,230.000000,,2013-02-04 00:31:00,
2013-02-03 16:41:00,42.0,27.0,-100.00,WSW,257,5.0,8.0,56,0.00,,,0.00,230.000000,,2013-02-04 00:41:00,
2013-02-03 16:51:00,42.0,27.0,-100.00,WSW,257,5.0,8.0,56,0.00,,,0.00,230.000000,,2013-02-04 00:51:00,
2013-02-03 17:21:00,39.0,25.0,-100.00,SW,221,3.0,7.0,58,0.00,,,0.00,78.000000,,2013-02-04 01:21:00,
2013-02-03 17:31:00,39.0,25.0,-100.00,SW,221,3.0,7.0,58,0.00,,,0.00,78.000000,,2013-02-04 01:31:00,
2013-02-03 17:41:00,39.0,25.0,-100.00,SW,221,3.0,7.0,58,0.00,,,0.00,78.000000,,2013-02-04 01:41:00,
2013-02-03 17:52:00,39.0,25.0,-100.00,SW,221,3.0,7.0,58,0.00,,,0.00,78.000000,,2013-02-04 01:52:00,
2013-02-03 18:21:00,37.0,26.0,-100.00,South,169,2.0,5.0,63,0.00,,,0.00,15.000000,,2013-02-04 02:21:00,
2013-02-03 18:31:00,37.0,26.0,-100.00,South,169,2.0,5.0,63,0.00,,,0.00,15.000000,,2013-02-04 02:31:00,
2013-02-03 18:41:00,37.0,26.0,-100.00,South,169,2.0,5.0,63,0.00,,,0.00,15.000000,,2013-02-04 02:41:00,
2013-02-03 18:52:00,37.0,26.0,-100.00,South,169,2.0,5.0,63,0.00,,,0.00,15.000000,,2013-02-04 02:52:00,
2013-02-03 19:21:00,37.0,27.0,-100.00,West,273,3.0,5.0,66,0.00,,,0.00,1.000000,,2013-02-04 03:21:00,
2013-02-03 19:32:00,37.0,27.0,-100.00,West,273,3.0,5.0,66,0.00,,,0.00,1.000000,,2013-02-04 03:32:00,
2013-02-03 19:41:00,37.0,27.0,-100.00,West,273,3.0,5.0,66,0.00,,,0.00,1.000000,,2013-02-04 03:41:00,
2013-02-03 19:51:00,37.0,27.0,-100.00,West,273,3.0,5.0,66,0.00,,,0.00,1.000000,,2013-02-04 03:51:00,
2013-02-03 20:21:00,34.0,26.0,-100.00,ESE,112,2.0,5.0,72,0.00,,,0.00,1.000000,,2013-02-04 04:21:00,
2013-02-03 20:31:00,34.0,26.0,-100.00,ESE,112,2.0,5.0,72,0.00,,,0.00,1.000000,,2013-02-04 04:31:00,
2013-02-03 20:41:00,34.0,26.0,-100.00,ESE,112,2.0,5.0,72,0.00,,,0.00,1.000000,,2013-02-04 04:41:00,
2013-02-03 20:52:00,34.0,26.0,-100.00,ESE,112,2.0,5.0,72,0.00,,,0.00,1.000000,,2013-02-04 04:52:00,
2013-02-03 21:22:00,35.0,26.0,-100.00,NW,310,3.0,4.0,68,0.00,,,0.00,1.000000,,2013-02-04 05:22:00,
2013-02-03 21:33:00,35.0,26.0,-100.00,NW,310,3.0,4.0,68,0.00,,,0.00,1.000000,,2013-02-04 05:33:00,
2013-02-03 21:42:00,35.0,26.0,-100.00,NW,310,3.0,4.0,68,0.00,,,0.00,1.000000,,2013-02-04 05:42:00,
2013-02-03 21:51:00,35.0,26.0,-100.00,NW,310,3.0,4.0,68,0.00,,,0.00,1.000000,,2013-02-04 05:51:00,
2013-02-03 22:21:00,33.0,26.0,-100.00,ENE,73,3.0,5.0,76,0.00,,,0.00,1.000000,,2013-02-04 06:21:00,
2013-02-03 22:31:00,33.0,26.0,-100.00,ENE,73,3.0,5.0,76,0.00,,,0.00,1.000000,,2013-02-04 06:31:00,
2013-02-03 22:41:00,33.0,26.0,-100.00,ENE,73,3.0,5.0,76,0.00,,,0.00,1.000000,,2013-02-04 06:41:00,
2013-02-03 22:51:00,33.0,26.0,-100.00,ENE,73,3.0,5.0,76,0.00,,,0.00,1.000000,,2013-02-04 06:51:00,
2013-02-03 23:21:00,32.0,24.0,-100.00,East,84,2.0,4.0,73,0.00,,,0.00,1.000000,,2013-02-04 07:21:00,
2013-02-03 23:31:00,32.0,24.0,-100.00,East,84,2.0,4.0,73,0.00,,,0.00,1.000000,,2013-02-04 07:31:00,
2013-02-03 23:41:00,32.0,24.0,-100.00,East,84,2.0,4.0,73,0.00,,,0.00,1.000000,,2013-02-04 07:41:00,
2013-02-03 23:51:00,32.0,24.0,-100.00,East,84,2.0,4.0,73,0.00,,,0.00,1.000000,,2013-02-04 07:51:00,